(164) Eva
ephemeris date magn radius delta ra dec elong phase
Today13 Jul 202611.61.861 AU1.116 AU23h54m-40°49'121.4°27.8°
Opposition31 Aug 202611.01.754 AU0.931 AU00h36m-53°17'129.4°26.4°
(164) Eva - 2026-07-13
astro.vanbuitenen.nl


 
-1 year
-1 month
-1 day
Now
+1 day
+1 month
+1 year

The interactive orbit chart above shows the body's path through the solar system and its position at the given date. Green and blue lines are shown perpendicular to the ecliptic plane: Green if the path is above the ecliptic plane, blue if it is below. (Left-click and drag to rotate the view; Right-click and drag to move the view; Use scroll wheel to zoom in our out.)

The orbital elements of Eva are:

            e (Eccentricity)                : 0.3462488
            a (Semimajor axis)              : 2.6327804
            i (Inclination)                 : 24.47311
            Ω (Longitude of ascending node) : 76.77959
            ω (Argument of perihelion)      : 284.00697
            M (Mean anomaly)                : 330.59377
            Epoch                           : 2026 Jun 09

            L (Longitude of perihelion)     : 2.10692
            B (Latitude of perihelion)      : -23.70004
            P (Orbital period in years)     : 4.27            
        

The light curve chart below shows the estimated development of the minor planet's magnitude.


The all-sky chart below shows the path of the minor planet over the same period as the light curve. The current position is marked yellow.





The following chart shows the path of the minor planet in the next few days. The field of view is optimized for (~10x50) binoculars and finderscopes.




Ephemerides:
Date       Time       RA (2000)    DEC (2000)    delta   radius  elong  phase   PA    magn
2026-07-13 00:00 UT   23 54 41.0   -40 49 21     1.116    1.861  121.4   27.8   267   11.6 
2026-07-13 09:44 UT   23 55 22.7   -40 55 49     1.113    1.859  121.6   27.8   267   11.6 
2026-07-14 00:00 UT   23 56 23.3   -41 05 19     1.109    1.858  121.8   27.7   268   11.6 
2026-07-15 00:00 UT   23 58 04.2   -41 21 24     1.103    1.855  122.1   27.6   268   11.6 
2026-07-16 00:00 UT   23 59 43.8   -41 37 37     1.096    1.852  122.5   27.6   269   11.5 
2026-07-17 00:00 UT   00 01 22.0   -41 53 57     1.089    1.850  122.9   27.5   270   11.5 
2026-07-18 00:00 UT   00 02 58.7   -42 10 23     1.083    1.847  123.2   27.4   271   11.5 
2026-07-19 00:00 UT   00 04 34.0   -42 26 55     1.077    1.844  123.5   27.3   271   11.5 
2026-07-20 00:00 UT   00 06 07.7   -42 43 32     1.071    1.842  123.9   27.3   272   11.5 
2026-07-21 00:00 UT   00 07 39.9   -43 00 14     1.065    1.839  124.2   27.2   273   11.4 
2026-07-22 00:00 UT   00 09 10.4   -43 17 00     1.059    1.837  124.5   27.1   274   11.4 
2026-07-23 00:00 UT   00 10 39.2   -43 33 50     1.053    1.834  124.8   27.0   275   11.4 
2026-07-24 00:00 UT   00 12 06.3   -43 50 43     1.048    1.832  125.1   27.0   276   11.4 
2026-07-25 00:00 UT   00 13 31.6   -44 07 39     1.043    1.829  125.4   26.9   276   11.4 
2026-07-26 00:00 UT   00 14 55.1   -44 24 37     1.037    1.827  125.7   26.8   277   11.4 
2026-07-27 00:00 UT   00 16 16.7   -44 41 36     1.032    1.824  126.0   26.8   278   11.4 
2026-07-28 00:00 UT   00 17 36.3   -44 58 36     1.027    1.822  126.2   26.7   279   11.3 
2026-07-29 00:00 UT   00 18 53.9   -45 15 37     1.022    1.819  126.5   26.7   280   11.3 
2026-07-30 00:00 UT   00 20 09.4   -45 32 37     1.017    1.817  126.7   26.6   281   11.3 
2026-07-31 00:00 UT   00 21 22.7   -45 49 36     1.013    1.815  127.0   26.6   282   11.3 
2026-08-01 00:00 UT   00 22 33.9   -46 06 34     1.008    1.812  127.2   26.5   283   11.3 
2026-08-02 00:00 UT   00 23 42.8   -46 23 30     1.004    1.810  127.4   26.5   284   11.3 
2026-08-03 00:00 UT   00 24 49.3   -46 40 22     1.000    1.808  127.6   26.4   285   11.3 
2026-08-04 00:00 UT   00 25 53.4   -46 57 11     0.996    1.805  127.8   26.4   286   11.2 


    Terminology:
            
    delta:  distance between minor planet and earth in AU
    radius: distance between minor planet and sun in AU
    magn:   magnitude (brightness) estimate    
    ra:     right ascension in hours (24h = 360deg)
    dec:    declination in degrees
    elong:  elongation in degrees (angle sun-earth-minor planet)    
    phase:  phase angle in degrees (angle sun-minor planet-earth)        
    AU:     Astronomical Unit (mean distance between earth and sun: 149597870.7 km
    

Orbital elements provided by the MPC (Minor Planet Center).
Calculations by a modified version of AAPlus, a C# implementation of the AA+ project by PJ Naughter from the algorithms presented in the book "Astronomical Algorithms" by Jean Meeus.
NGC2000 dso catalog and star labels from VizieR as provided by the Strasbourg astronomical Data Center.
Tycho2 catalog from the ESO archive.